UA1ZPU-15 Weather Reports


Display with metric or nautical units.
time (UTC)temp
F
wind
direction
speed
MPH
gust
MPH
rain 1hr
in
rain 24hr
in
rain mn
in
humidity
%
barometer
mb
20260503184250 36 0.0 0.0 0.00 0.00 0.00 967.9
20260503183247 36 0.0 0.0 0.00 0.00 0.00 967.7
20260503182246 36 0.0 0.0 0.00 0.00 0.00 967.8
20260503181245 36 0.0 0.0 0.00 0.00 0.00 967.8
20260503180239 36 0.0 0.0 0.00 0.00 0.00 967.7
20260503175237 37 0.0 0.0 0.00 0.00 0.00 967.7
20260503174234 36 0.0 0.0 0.00 0.00 0.00 967.7
20260503173233 37 0.0 0.0 0.00 0.00 0.00 967.6
20260503172230 37 0.0 0.0 0.00 0.00 0.00 967.6
20260503171228 37 0.0 0.0 0.00 0.00 0.00 967.5
20260503170224 37 0.0 0.0 0.00 0.00 0.00 967.5
20260503160208 39 0.0 0.0 0.00 0.00 0.00 967.4
20260503150151 41 0.0 0.0 0.00 0.00 0.00 967.4
20260503131114 45 0.0 0.0 0.00 0.00 0.00 967.0
20260503130111 44 0.0 0.0 0.00 0.00 0.00 967.0
20260503110808 43 0.0 0.0 0.00 0.00 0.00 966.4
20260503110653 43 0.0 0.0 0.00 0.00 0.00 966.5
20260503110333 43 0.0 0.0 0.00 0.00 0.00 966.5
20260503090301 42 0.0 0.0 0.00 0.00 0.00 966.2
20260503081245 41 0.0 0.0 0.00 0.00 0.00 966.2
20260503080356 43 0.0 0.0 0.00 0.00 0.00 966.1
20260503080242 43 0.0 0.0 0.00 0.00 0.00 966.1
20260503072644 40 0.0 0.0 0.00 0.00 0.00 965.7
20260503071641 39 0.0 0.0 0.00 0.00 0.00 965.9
20260503070639 40 0.0 0.0 0.00 0.00 0.00 965.6
20260503054613 39 0.0 0.0 0.00 0.00 0.00 965.4
20260503053610 38 0.0 0.0 0.00 0.00 0.00 965.5
20260503052608 38 0.0 0.0 0.00 0.00 0.00 965.4
20260503051720 37 0.0 0.0 0.00 0.00 0.00 965.3